TimeEST,TemperatureF,Dew PointF,Humidity,Sea Level PressureIn,VisibilityMPH,Wind Direction,Wind SpeedMPH,Gust SpeedMPH,PrecipitationIn,Events,Conditions,WindDirDegrees,DateUTC
4:55 AM,35.6,28.4,75,29.61,10.0,NNW,5.8,-,N/A,,Overcast,330,2013-03-01 09:55:00
5:15 AM,35.6,28.4,75,29.61,10.0,NNW,5.8,-,N/A,,Overcast,330,2013-03-01 10:15:00
5:35 AM,35.6,28.4,75,29.61,10.0,NNW,8.1,-,N/A,,Overcast,340,2013-03-01 10:35:00
5:45 AM,35.6,28.4,75,29.61,10.0,North,5.8,-,N/A,,Overcast,350,2013-03-01 10:45:00
5:55 AM,35.6,28.4,75,29.61,10.0,NNW,8.1,-,N/A,,Overcast,340,2013-03-01 10:55:00
7:45 AM,35.6,28.4,75,29.65,10.0,North,8.1,-,N/A,,Overcast,350,2013-03-01 12:45:00
9:45 AM,37.4,26.6,65,29.66,10.0,NNW,9.2,-,N/A,,Overcast,340,2013-03-01 14:45:00
10:45 AM,37.4,26.6,65,29.66,10.0,North,8.1,-,N/A,,Overcast,360,2013-03-01 15:45:00
12:45 PM,41.0,26.6,57,29.66,10.0,North,10.4,18.4,N/A,,Scattered Clouds,350,2013-03-01 17:45:00
1:45 PM,41.0,24.8,53,29.65,10.0,North,11.5,17.3,N/A,,Mostly Cloudy,360,2013-03-01 18:45:00
3:45 PM,39.2,24.8,56,29.67,10.0,North,-9999.0,-,N/A,,Overcast,0,2013-03-01 20:45:00
5:10 PM,37.4,26.6,65,29.68,10.0,North,11.5,23.0,N/A,,Overcast,350,2013-03-01 22:10:00
5:45 PM,37.4,26.6,65,29.69,10.0,North,6.9,-,N/A,,Overcast,350,2013-03-01 22:45:00
6:45 PM,37.4,26.6,65,29.71,10.0,North,11.5,-,N/A,,Overcast,350,2013-03-01 23:45:00
7:45 PM,35.6,26.6,70,29.79,10.0,North,12.7,-,N/A,,Overcast,350,2013-03-02 00:45:00
9:35 PM,35.6,24.8,65,29.73,10.0,NNW,13.8,20.7,N/A,,Overcast,340,2013-03-02 02:35:00
9:55 PM,35.6,24.8,65,29.73,10.0,NNW,10.4,-,N/A,,Overcast,340,2013-03-02 02:55:00
10:15 PM,33.8,24.8,70,29.74,10.0,NW,6.9,16.1,N/A,,Overcast,320,2013-03-02 03:15:00
10:35 PM,33.8,24.8,70,29.74,10.0,NNW,8.1,16.1,N/A,,Overcast,330,2013-03-02 03:35:00
10:55 PM,33.8,24.8,70,29.74,10.0,NW,8.1,-,N/A,,Overcast,320,2013-03-02 03:55:00
11:15 PM,33.8,24.8,70,29.73,10.0,NW,9.2,-,N/A,,Overcast,320,2013-03-02 04:15:00
11:35 PM,33.8,24.8,70,29.74,10.0,NW,6.9,-,N/A,,Overcast,320,2013-03-02 04:35:00
11:55 PM,33.8,24.8,70,29.74,10.0,NW,6.9,-,N/A,,Overcast,320,2013-03-02 04:55:00